Terug naar catalogus

STARLINK-35868

ActiefCommunicatieVLEO
NORAD 66579·PAYLOAD·🇺🇸 United States

Gelanceerd Nov 21, 2025 vanaf Cape Canaveral Space Force Station

Loading…

Volgende Passages (komende 24 uur)

TLE

VersSource: CelesTrak SupGP

Epoch: Sep 14, 2026, 21:07 UTC

1 66579C 25268Y   26257.88034722  .00014979  00000+0  54250-3 0  2577
2 66579  43.0038 358.5286 0001636 271.8329 136.4267 15.27572760    10

Volg STARLINK-35868 in realtime met AllMySat

Download on the App Store